This demonstration page uses our WeatherBlox Daily Observations layout. Learn more.

Left ArrowRight Arrow

39.92423, -83.80882

Hourly Observations for April 14, 2020

Temp ( °F °C ) Dew Point ( °F °C ) Humidity (%) Winds ( mph kmh ) Pressure ( in mb ) Visibility ( mi km ) Precip ( " mm )
12:56 am 00:56 Clear 39 3.9 26 -3.3 60 60 WNW 12 19 30.19 1022 10 16.0934 0 0
1:56 am 01:56 Mostly Cloudy 38 3.3 25 -3.9 60 60 WNW 9 15 30.21 1023 10 16.0934 0 0
2:56 am 02:56 Partly Cloudy 36 2.2 24 -4.4 62 62 WNW 9 15 30.2 1023 10 16.0934 0 0
3:56 am 03:56 Partly Cloudy 36 2.2 25 -3.9 64 64 WNW 8 13 30.19 1023 10 16.0934 0 0
4:56 am 04:56 Clear 34 1.1 23 -5 64 64 NW 8 13 30.19 1022 10 16.0934 0 0
5:56 am 05:56 Clear 32 0 25 -3.9 75 75 WNW 7 11 30.22 1023 10 16.0934 0 0
6:56 am 06:56 Clear 32 0 23 -5 69 69 W 5 7 30.22 1023 10 16.0934 0 0
7:56 am 07:56 Sunny 33 0.6 25 -3.9 72 72 W 5 7 30.23 1024 10 16.0934 0 0
8:56 am 08:56 Sunny 35 1.7 23 -5 61 61 WNW 6 9 30.23 1024 10 16.0934 0 0
9:56 am 09:56 Partly Cloudy 37 2.8 22 -5.6 54 54 W 6 9 30.23 1024 10 16.0934 0 0
10:56 am 10:56 Sunny 39 3.9 20 -6.7 46 46 WNW 6 9 30.23 1024 10 16.0934 0 0
11:56 am 11:56 Sunny 41 5 24 -4.4 51 51 WNW 9 15 30.22 1024 10 16.0934 0 0
12:56 pm 12:56 Mostly Cloudy 43 6.1 25 -3.9 49 49 W 15 24 30.19 1022 10 16.0934 0 0
1:56 pm 13:56 Mostly Cloudy 44 6.7 26 -3.3 49 49 W 17 28 30.17 1022 10 16.0934 0 0
2:56 pm 14:56 Cloudy 43 6.1 26 -3.3 51 51 WNW 17 28 30.16 1021 10 16.0934 0 0
3:56 pm 15:56 Mostly Cloudy 44 6.7 25 -3.9 47 47 WSW 23 37 30.14 1021 10 16.0934 0 0
4:56 pm 16:56 Cloudy 44 6.7 23 -5 43 43 W 18 30 30.13 1020 10 16.0934 0 0
5:56 pm 17:56 Mostly Sunny 44 6.7 20 -6.7 38 38 W 18 30 30.14 1021 10 16.0934 0 0
6:56 pm 18:56 Mostly Sunny 42 5.6 19 -7.2 40 40 W 15 24 30.16 1021 10 16.0934 0 0
7:56 pm 19:56 Sunny 40 4.4 16 -8.9 38 38 WNW 12 19 30.16 1021 10 16.0934 0 0
8:56 pm 20:56 Mostly Clear 36 2.2 19 -7.2 50 50 W 7 11 30.17 1022 10 16.0934 0 0
9:56 pm 21:56 Clear 34 1.1 22 -5.6 61 61 WSW 5 7 30.18 1022 10 16.0934 0 0
10:56 pm 22:56 Clear 32 0 24 -4.4 73 73 W 3 6 30.17 1022 10 16.0934 0 0
11:56 pm 23:56 Clear 32 0 23 -5 69 69 WSW 3 6 30.17 1022 10 16.0934 0 0

Powered by AerisWeather